Regional Weather Roundup
Issued by NWS Charleston, SC

Current Version | Previous Version | Graphics & Text | Print | Product List | Glossary On
Versions: 1 2 3 4 5 6 7 8 9 10 11 12 13 14 15 16 17 18 19 20 21 22 23 24 25 26 27 28 29 30 31 32 33 34 35 36 37 38 39 40 41 42 43 44 45 46 47 48 49 50
000
ASUS42 KCHS 300410
RWRCHS
REGIONAL WEATHER ROUNDUP
NATIONAL WEATHER SERVICE CHARLESTON SC
1200 AM EDT TUE SEP 30 2014

NOTE: "FAIR" INDICATES FEW OR NO CLOUDS BELOW 12,000 FEET WITH NO
SIGNIFICANT WEATHER AND/OR OBSTRUCTIONS TO VISIBILITY.

NOT ALL STATIONS ARE QUALITY CONTROLLED BY THE NATIONAL
WEATHER SERVICE. USE DATA WITH CAUTION...ESPECIALLY
DEWPOINT OBSERVATIONS.

SCZ027-030-031-034>040-042>050-300500-
...SOUTH CAROLINA...

CITY           SKY/WX    TMP DP  RH WIND       PRES   REMARKS
N CHARLESTON   CLOUDY    66  64  93 N6        29.93F
WATERFRONT PRK NOT AVBL
FORT JOHNSON   NOT AVBL
MOUNT PLEASANT LGT RAIN  66  64  94 N6        29.92F
JOHNS ISLAND   CLOUDY    66  66 100 N3        29.92F
PINOPOLIS        N/A     66  63  88 NE8       29.86F
MONCKS CORNER    N/A     64  64 100 CALM      29.93F
SUMMERVILLE    CLOUDY    64  64 100 CALM      29.94F
BEAUFORT MCAS  CLOUDY    68  66  93 NE9       29.91F
BEAUFORT ARPT  CLOUDY    68  68 100 NE15      29.91F
HILTON HEAD IS CLOUDY    70  66  88 N8        29.91F
GEORGETOWN     NOT AVBL
WALTERBORO     DRIZZLE   66 N/A N/A NE6       29.93F
ORANGEBURG     CLOUDY    64  61  90 E7        29.95F
BARNWELL       CLOUDY    66  64  94 NE5       29.96F
AIKEN          CLOUDY    68  68 100 NE3       29.98F
MANNING        CLOUDY    64 N/A N/A N3        29.95F
KINGSTREE      NOT AVBL
COLUMBIA       MOCLDY    68  63  84 E7        29.96F
SUMTER         MOCLDY    64  59  84 NE2       29.95F
FLORENCE       CLEAR     63  61  93 N3        29.96F
MYRTLE BEACH   CLOUDY    64  59  82 N6        29.94S
N MYRTLE BEACH CLOUDY    64  60  87 NE7       29.93F

$$

GAZ063-065-086>088-099>101-113>116-118-119-134-136>141-150-300500-
...GEORGIA...

CITY           SKY/WX    TMP DP  RH WIND       PRES   REMARKS
SAVANNAH ARPT  CLOUDY    69  65  86 N9        29.90F
HUNTER AAF     CLOUDY    69  68  98 N9        29.88F
FORT STEWART   CLOUDY    68  67  94 N9        29.88F
STATESBORO     NOT AVBL
SYLVANIA       CLOUDY    70  69  98 NE5       29.94F FOG
CLAXTON          N/A     68  68 100 NE8       29.92F
THOMSON        CLOUDY    69  69 100 CALM      30.00S
AUGUSTA-BUSH   CLOUDY    69  64  84 E3        29.94F
AUGUSTA-DANIEL CLOUDY    69  65  86 NE5       29.96F
SWAINSBORO     CLOUDY    70  70 100 E3        29.95S
VIDALIA        CLOUDY    68  68 100 NE7       29.93S
ALMA           CLOUDY    69  68  96 NE6       29.89S FOG
WAYCROSS       CLOUDY    74  74  98 NE8       29.87S FOG
JESUP          CLOUDY    72  72 100 NE8       29.88F FOG
BRUNSWICK      CLOUDY    73  72  94 NE8       29.86F
SAINT SIMONS   CLOUDY    73  72  96 N5        29.85F

$$

SCZ027-028-034-036>038-045-046-048>050-GAZ119-141-300500-
...LAKE AND SUPPLEMENTAL COASTAL OBSERVATIONS...

STATION/POSITION TIME  TEMP    WIND        PRES    WAVE   SWELL
                       AIR SEA DIR/SP/G            HT/PER HT/PER/DIR
                 (UTC) (F)     (DEG/KT/KT) (MB)    (FT/S) (FT/S/D)
UPR LAKE MARION  NOT AVBL
WINYAH BAY       0300   66      40/ 10     1014.0S
LAKE MURRAY      0300   68      CALM  /  3 1014.2F
ACE BASIN NERRS  0300   67      30/  4     1013.0S
FORT PULASKI     0400   70      20/ 11/ 15 1012.5
SAPELO ISLAND    NOT AVBL

$$

ANZ835-935-AMZ111-154-330-350-352-354-374-450-454-472-300500-
...C-MAN AND BUOY OBSERVATIONS...

STATION/POSITION TIME  TEMP    WIND        PRES    WAVE   SWELL
                       AIR SEA DIR/SP/G            HT/PER HT/PER/DIR
                 (UTC) (F)     (DEG/KT/KT) (MB)    (FT/S) (FT/S/D)
FOLLY BEACH CMAN 0300   68      20/ 14/ 15 1013.7F
BUOY 41004       0400   73 81  100/ 16/ 17 1011.3F   5/ 6   2/11
BUOY 41008       0400   76 79   80/  6/ 10 1010.7F   4/ 5   3/ 40/ 5
5E ST. MARYS GA  0400      79                N/A     3/ 9
FRYING PAN BUOY  NOT AVBL
BUOY 41025       0400   73     360/ 12/ 14 1012.5F   3/ 7   2/ 70/ 7
CAPE LOOKOUT NC  0300   71     360/  8/  9 1013.4F
BUOY 41002       0326   77 81  230/  8/ 10 1012.7F   3/ 8   3/ 70/ 8
BUOY 41010       0400   76 84   30/  4/  6 1011.9F   4/ 9   3/ 80/ 9
BUOY 41012       NOT AVBL
ST AUGUSTINE FL  0400   74     190/  3/  3 1010.8R
CAPERS NEARSHORE 0300   69      40/ 17/ 19   N/A
FRIPP NEARSHORE  NOT AVBL


$$



USA.gov is the U.S. government's official web portal to all federal, state and local government web resources and services.